Year,Month,Day,Hour,Minute,Value (Times are PST for temperature in C)
2023,04,21,00,00,5.30
2023,04,21,00,01,5.30
2023,04,21,00,02,5.30
2023,04,21,00,03,5.30
2023,04,21,00,04,5.30
2023,04,21,00,05,5.30
2023,04,21,00,06,5.40
2023,04,21,00,07,5.30
2023,04,21,00,08,5.30
2023,04,21,00,09,5.30
2023,04,21,00,10,5.30
2023,04,21,00,11,5.30
2023,04,21,00,12,5.40
2023,04,21,00,13,5.40
2023,04,21,00,14,5.40
2023,04,21,00,15,5.40
2023,04,21,00,16,5.40
2023,04,21,00,17,5.40
2023,04,21,00,18,5.40
2023,04,21,00,19,5.30
2023,04,21,00,20,5.40
2023,04,21,00,21,5.40
2023,04,21,00,22,5.40
2023,04,21,00,23,5.40
2023,04,21,00,24,5.40
2023,04,21,00,25,5.40
2023,04,21,00,26,5.40
2023,04,21,00,27,5.40
2023,04,21,00,28,5.40
2023,04,21,00,29,5.40
2023,04,21,00,30,5.40
2023,04,21,00,31,5.40
2023,04,21,00,32,5.40
2023,04,21,00,33,5.40
2023,04,21,00,34,5.40
2023,04,21,00,35,5.40
2023,04,21,00,36,5.40
2023,04,21,00,37,5.40
2023,04,21,00,38,5.40
2023,04,21,00,39,5.40
2023,04,21,00,40,5.40
2023,04,21,00,41,5.40
2023,04,21,00,42,5.40
2023,04,21,00,43,5.40
2023,04,21,00,44,5.40
2023,04,21,00,45,5.40
2023,04,21,00,46,5.40
2023,04,21,00,47,5.40
2023,04,21,00,48,5.40
2023,04,21,00,49,5.40
2023,04,21,00,50,5.40
2023,04,21,00,51,5.40
2023,04,21,00,52,5.40
2023,04,21,00,53,5.40
2023,04,21,00,54,5.40
2023,04,21,00,55,5.40
2023,04,21,00,56,5.40
2023,04,21,00,57,5.40
2023,04,21,00,58,5.40
2023,04,21,00,59,5.40
2023,04,21,01,00,5.40
2023,04,21,01,01,5.40
2023,04,21,01,02,5.40
2023,04,21,01,03,5.40
2023,04,21,01,04,5.40
2023,04,21,01,05,5.40
2023,04,21,01,06,5.40
2023,04,21,01,07,5.40
2023,04,21,01,08,5.40
2023,04,21,01,09,5.40
2023,04,21,01,10,5.40
2023,04,21,01,11,5.40
2023,04,21,01,12,5.40
2023,04,21,01,13,5.40
2023,04,21,01,14,5.40
2023,04,21,01,15,5.40
2023,04,21,01,16,5.40
2023,04,21,01,17,5.40
2023,04,21,01,18,5.40
2023,04,21,01,19,5.40
2023,04,21,01,20,5.40
2023,04,21,01,21,5.40
2023,04,21,01,22,5.40
2023,04,21,01,23,5.40
2023,04,21,01,24,5.40
2023,04,21,01,25,5.40
2023,04,21,01,26,5.40
2023,04,21,01,27,5.40
2023,04,21,01,28,5.40
2023,04,21,01,29,5.40
2023,04,21,01,30,5.40
2023,04,21,01,31,5.40
2023,04,21,01,32,5.40
2023,04,21,01,33,5.40
2023,04,21,01,34,5.40
2023,04,21,01,35,5.40
2023,04,21,01,36,5.50
2023,04,21,01,37,5.50
2023,04,21,01,38,5.50
2023,04,21,01,39,5.40
2023,04,21,01,40,5.40
2023,04,21,01,41,5.40
2023,04,21,01,42,5.40
2023,04,21,01,43,5.40
2023,04,21,01,44,5.40
2023,04,21,01,45,5.40
2023,04,21,01,46,5.40
2023,04,21,01,47,5.40
2023,04,21,01,48,5.40
2023,04,21,01,49,5.40
2023,04,21,01,50,5.40
2023,04,21,01,51,5.40
2023,04,21,01,52,5.40
2023,04,21,01,53,5.40
2023,04,21,01,54,5.40
2023,04,21,01,55,5.40
2023,04,21,01,56,5.40
2023,04,21,01,57,5.40
2023,04,21,01,58,5.40
2023,04,21,01,59,5.40
2023,04,21,02,00,5.40
2023,04,21,02,01,5.40
2023,04,21,02,02,5.40
2023,04,21,02,03,5.40
2023,04,21,02,04,5.40
2023,04,21,02,05,5.40
2023,04,21,02,06,5.40
2023,04,21,02,07,5.40
2023,04,21,02,08,5.40
2023,04,21,02,09,5.40
2023,04,21,02,10,5.40
2023,04,21,02,11,5.40
2023,04,21,02,12,5.40
2023,04,21,02,13,5.40
2023,04,21,02,14,5.40
2023,04,21,02,15,5.40
2023,04,21,02,16,5.40
2023,04,21,02,17,5.40
2023,04,21,02,18,5.40
2023,04,21,02,19,5.40
2023,04,21,02,20,5.40
2023,04,21,02,21,5.40
2023,04,21,02,22,5.40
2023,04,21,02,23,5.40
2023,04,21,02,24,5.40
2023,04,21,02,25,5.40
2023,04,21,02,26,5.40
2023,04,21,02,27,5.40
2023,04,21,02,28,5.40
2023,04,21,02,29,5.40
2023,04,21,02,30,5.40
2023,04,21,02,31,5.40
2023,04,21,02,32,5.40
2023,04,21,02,33,5.40
2023,04,21,02,34,5.40
2023,04,21,02,35,5.40
2023,04,21,02,36,5.40
2023,04,21,02,37,5.40
2023,04,21,02,38,5.40
2023,04,21,02,39,5.40
2023,04,21,02,40,5.40
2023,04,21,02,41,5.40
2023,04,21,02,42,5.40
2023,04,21,02,43,5.40
2023,04,21,02,44,5.40
2023,04,21,02,45,5.40
2023,04,21,02,46,5.40
2023,04,21,02,47,5.40
2023,04,21,02,48,5.40
2023,04,21,02,49,5.40
2023,04,21,02,50,5.40
2023,04,21,02,51,5.50
2023,04,21,02,52,5.50
2023,04,21,02,53,5.50
2023,04,21,02,54,5.50
2023,04,21,02,55,5.50
2023,04,21,02,56,5.50
2023,04,21,02,57,5.50
2023,04,21,02,58,5.50
2023,04,21,02,59,5.50
2023,04,21,03,00,5.50
2023,04,21,03,01,5.50
2023,04,21,03,02,5.40
2023,04,21,03,03,5.50
2023,04,21,03,04,5.50
2023,04,21,03,05,5.40
2023,04,21,03,06,5.40
2023,04,21,03,07,5.40
2023,04,21,03,08,5.40
2023,04,21,03,09,5.40
2023,04,21,03,10,5.40
2023,04,21,03,11,5.40
2023,04,21,03,12,5.40
2023,04,21,03,13,5.40
2023,04,21,03,14,5.40
2023,04,21,03,15,5.40
2023,04,21,03,16,5.40
2023,04,21,03,17,5.40
2023,04,21,03,18,5.40
2023,04,21,03,19,5.40
2023,04,21,03,20,5.40
2023,04,21,03,21,5.40
2023,04,21,03,22,5.40
2023,04,21,03,23,5.40
2023,04,21,03,24,5.40
2023,04,21,03,25,5.40
2023,04,21,03,26,5.40
2023,04,21,03,27,5.40
2023,04,21,03,28,5.40
2023,04,21,03,29,5.40
2023,04,21,03,30,5.40
2023,04,21,03,31,5.40
2023,04,21,03,32,5.40
2023,04,21,03,33,5.40
2023,04,21,03,34,5.40
2023,04,21,03,35,5.40
2023,04,21,03,36,5.40
2023,04,21,03,37,5.40
2023,04,21,03,38,5.40
2023,04,21,03,39,5.40
2023,04,21,03,40,5.40
2023,04,21,03,41,5.40
2023,04,21,03,42,5.50
2023,04,21,03,43,5.50
2023,04,21,03,44,5.50
2023,04,21,03,45,5.50
2023,04,21,03,46,5.50
2023,04,21,03,47,5.50
2023,04,21,03,48,5.50
2023,04,21,03,49,5.60
2023,04,21,03,50,5.60
2023,04,21,03,51,5.50
2023,04,21,03,52,5.50
2023,04,21,03,53,5.50
2023,04,21,03,54,5.60
2023,04,21,03,55,5.60
2023,04,21,03,56,5.60
2023,04,21,03,57,5.60
2023,04,21,03,58,5.70
2023,04,21,03,59,5.70
2023,04,21,04,00,5.80
2023,04,21,04,01,5.80
2023,04,21,04,02,5.80
2023,04,21,04,03,5.80
2023,04,21,04,04,5.90
2023,04,21,04,05,5.90
2023,04,21,04,06,5.90
2023,04,21,04,07,5.90
2023,04,21,04,08,5.90
2023,04,21,04,09,5.90
2023,04,21,04,10,5.90
2023,04,21,04,11,5.90
2023,04,21,04,12,5.90
2023,04,21,04,13,5.90
2023,04,21,04,14,5.90
2023,04,21,04,15,5.90
2023,04,21,04,16,6.00
2023,04,21,04,17,6.00
2023,04,21,04,18,5.90
2023,04,21,04,19,6.00
2023,04,21,04,20,6.00
2023,04,21,04,21,6.00
2023,04,21,04,22,6.00
2023,04,21,04,23,6.00
2023,04,21,04,24,6.00
2023,04,21,04,25,6.00
2023,04,21,04,26,6.00
2023,04,21,04,27,6.00
2023,04,21,04,28,6.00
2023,04,21,04,29,6.00
2023,04,21,04,30,6.00
2023,04,21,04,31,6.00
2023,04,21,04,32,6.00
2023,04,21,04,33,6.00
2023,04,21,04,34,6.00
2023,04,21,04,35,6.00
2023,04,21,04,36,6.10
2023,04,21,04,37,6.10
2023,04,21,04,38,6.10
2023,04,21,04,39,6.10
2023,04,21,04,40,6.10
2023,04,21,04,41,6.10
2023,04,21,04,42,6.10
2023,04,21,04,43,6.10
2023,04,21,04,44,6.10
2023,04,21,04,45,6.10
2023,04,21,04,46,6.10
2023,04,21,04,47,6.10
2023,04,21,04,48,6.10
2023,04,21,04,49,6.10
2023,04,21,04,50,6.10
2023,04,21,04,51,6.10
2023,04,21,04,52,6.10
2023,04,21,04,53,6.10
2023,04,21,04,54,6.10
2023,04,21,04,55,6.10
2023,04,21,04,56,6.10
2023,04,21,04,57,6.10
2023,04,21,04,58,6.10
2023,04,21,04,59,6.10
2023,04,21,05,00,6.10
2023,04,21,05,01,6.10
2023,04,21,05,02,6.10
2023,04,21,05,03,6.10
2023,04,21,05,04,6.10
2023,04,21,05,05,6.10
2023,04,21,05,06,6.10
2023,04,21,05,07,6.10
2023,04,21,05,08,6.10
2023,04,21,05,09,6.10
2023,04,21,05,10,6.10
2023,04,21,05,11,6.10
2023,04,21,05,12,6.10
2023,04,21,05,13,6.10
2023,04,21,05,14,6.10
2023,04,21,05,15,6.10
2023,04,21,05,16,6.10
2023,04,21,05,17,6.10
2023,04,21,05,18,6.10
2023,04,21,05,19,6.10
2023,04,21,05,20,6.10
2023,04,21,05,21,6.10
2023,04,21,05,22,6.10
2023,04,21,05,23,6.10
2023,04,21,05,24,6.10
2023,04,21,05,25,6.10
2023,04,21,05,26,6.10
2023,04,21,05,27,6.10
2023,04,21,05,28,6.10
2023,04,21,05,29,6.10
2023,04,21,05,30,6.10
2023,04,21,05,31,6.10
2023,04,21,05,32,6.10
2023,04,21,05,33,6.10
2023,04,21,05,34,6.10
2023,04,21,05,35,6.10
2023,04,21,05,36,6.10
2023,04,21,05,37,6.10
2023,04,21,05,38,6.10
2023,04,21,05,39,6.10
2023,04,21,05,40,6.10
2023,04,21,05,41,6.10
2023,04,21,05,42,6.10
2023,04,21,05,43,6.20
2023,04,21,05,44,6.20
2023,04,21,05,45,6.20
2023,04,21,05,46,6.20
2023,04,21,05,47,6.20
2023,04,21,05,48,6.20
2023,04,21,05,49,6.20
2023,04,21,05,50,6.20
2023,04,21,05,51,6.20
2023,04,21,05,52,6.20
2023,04,21,05,53,6.20
2023,04,21,05,54,6.20
2023,04,21,05,55,6.20
2023,04,21,05,56,6.20
2023,04,21,05,57,6.20
2023,04,21,05,58,6.20
2023,04,21,05,59,6.20
2023,04,21,06,00,6.20
2023,04,21,06,01,6.20
2023,04,21,06,02,6.20
2023,04,21,06,03,6.20
2023,04,21,06,04,6.20
2023,04,21,06,05,6.20
2023,04,21,06,06,6.20
2023,04,21,06,07,6.20
2023,04,21,06,08,6.10
2023,04,21,06,09,6.20
2023,04,21,06,10,6.20
2023,04,21,06,11,6.10
2023,04,21,06,12,6.10
2023,04,21,06,13,6.10
2023,04,21,06,14,6.20
2023,04,21,06,15,6.10
2023,04,21,06,16,6.10
2023,04,21,06,17,6.10
2023,04,21,06,18,6.10
2023,04,21,06,19,6.10
2023,04,21,06,20,6.10
2023,04,21,06,21,6.10
2023,04,21,06,22,6.10
2023,04,21,06,23,6.20
2023,04,21,06,24,6.10
2023,04,21,06,25,6.10
2023,04,21,06,26,6.10
2023,04,21,06,27,6.10
2023,04,21,06,28,6.10
2023,04,21,06,29,6.20
2023,04,21,06,30,6.10
2023,04,21,06,31,6.10
2023,04,21,06,32,6.10
2023,04,21,06,33,6.10
2023,04,21,06,34,6.10
2023,04,21,06,35,6.10
2023,04,21,06,36,6.10
2023,04,21,06,37,6.10
2023,04,21,06,38,6.10
2023,04,21,06,39,6.10
2023,04,21,06,40,6.20
2023,04,21,06,41,6.10
2023,04,21,06,42,6.20
2023,04,21,06,43,6.20
2023,04,21,06,44,6.20
2023,04,21,06,45,6.20
2023,04,21,06,46,6.20
2023,04,21,06,47,6.20
2023,04,21,06,48,6.20
2023,04,21,06,49,6.20
2023,04,21,06,50,6.20
2023,04,21,06,51,6.20
2023,04,21,06,52,6.20
2023,04,21,06,53,6.20
2023,04,21,06,54,6.20
2023,04,21,06,55,6.20
2023,04,21,06,56,6.20
2023,04,21,06,57,6.20
2023,04,21,06,58,6.20
2023,04,21,06,59,6.20
2023,04,21,07,00,6.20
2023,04,21,07,01,6.20
2023,04,21,07,02,6.20
2023,04,21,07,03,6.20
2023,04,21,07,04,6.20
2023,04,21,07,05,6.20
2023,04,21,07,06,6.20
2023,04,21,07,07,6.20
2023,04,21,07,08,6.20
2023,04,21,07,09,6.20
2023,04,21,07,10,6.20
2023,04,21,07,11,6.20
2023,04,21,07,12,6.20
2023,04,21,07,13,6.20
2023,04,21,07,14,6.20
2023,04,21,07,15,6.20
2023,04,21,07,16,6.20
2023,04,21,07,17,6.20
2023,04,21,07,18,6.20
2023,04,21,07,19,6.20
2023,04,21,07,20,6.20
2023,04,21,07,21,6.20
2023,04,21,07,22,6.20
2023,04,21,07,23,6.20
2023,04,21,07,24,6.20
2023,04,21,07,25,6.20
2023,04,21,07,26,6.20
2023,04,21,07,27,6.20
2023,04,21,07,28,6.20
2023,04,21,07,29,6.20
2023,04,21,07,30,6.20
2023,04,21,07,31,6.20
2023,04,21,07,32,6.30
2023,04,21,07,33,6.30
2023,04,21,07,34,6.30
2023,04,21,07,35,6.30
2023,04,21,07,36,6.30
2023,04,21,07,37,6.30
2023,04,21,07,38,6.30
2023,04,21,07,39,6.30
2023,04,21,07,40,6.30
2023,04,21,07,41,6.30
2023,04,21,07,42,6.40
2023,04,21,07,43,6.40
2023,04,21,07,44,6.40
2023,04,21,07,45,6.40
2023,04,21,07,46,6.50
2023,04,21,07,47,6.50
2023,04,21,07,48,6.50
2023,04,21,07,49,6.50
2023,04,21,07,50,6.60
2023,04,21,07,51,6.50
2023,04,21,07,52,6.60
2023,04,21,07,53,6.60
2023,04,21,07,54,6.60
2023,04,21,07,55,6.60
2023,04,21,07,56,6.60
2023,04,21,07,57,6.60
2023,04,21,07,58,6.60
2023,04,21,07,59,6.60
2023,04,21,08,00,6.70
2023,04,21,08,01,6.70
2023,04,21,08,02,6.70
2023,04,21,08,03,6.80
2023,04,21,08,04,6.80
2023,04,21,08,05,6.80
2023,04,21,08,06,6.90
2023,04,21,08,07,6.90
2023,04,21,08,08,7.00
2023,04,21,08,09,7.00
2023,04,21,08,10,7.00
2023,04,21,08,11,6.90
2023,04,21,08,12,6.90
2023,04,21,08,13,6.90
2023,04,21,08,14,6.90
2023,04,21,08,15,6.80
2023,04,21,08,16,6.80
2023,04,21,08,17,6.80
2023,04,21,08,18,6.80
2023,04,21,08,19,6.80
2023,04,21,08,20,6.80
2023,04,21,08,21,6.80
2023,04,21,08,22,6.80
2023,04,21,08,23,6.80
2023,04,21,08,24,6.80
2023,04,21,08,25,6.80
2023,04,21,08,26,6.80
2023,04,21,08,27,6.80
2023,04,21,08,28,6.80
2023,04,21,08,29,6.80
2023,04,21,08,30,6.90
2023,04,21,08,31,6.90
2023,04,21,08,32,6.90
2023,04,21,08,33,6.90
2023,04,21,08,34,6.90
2023,04,21,08,35,6.90
2023,04,21,08,36,6.90
2023,04,21,08,37,6.90
2023,04,21,08,38,6.90
2023,04,21,08,39,6.90
2023,04,21,08,40,6.90
2023,04,21,08,41,6.90
2023,04,21,08,42,7.00
2023,04,21,08,43,7.00
2023,04,21,08,44,7.00
2023,04,21,08,45,7.00
2023,04,21,08,46,7.10
2023,04,21,08,47,7.10
2023,04,21,08,48,7.10
2023,04,21,08,49,7.10
2023,04,21,08,50,7.10
2023,04,21,08,51,7.20
2023,04,21,08,52,7.20
2023,04,21,08,53,7.30
2023,04,21,08,54,7.30
2023,04,21,08,55,7.30
2023,04,21,08,56,7.30
2023,04,21,08,57,7.30
2023,04,21,08,58,7.40
2023,04,21,08,59,7.40
2023,04,21,09,00,7.40
2023,04,21,09,01,7.50
2023,04,21,09,02,7.60
2023,04,21,09,03,7.70
2023,04,21,09,04,7.80
2023,04,21,09,05,7.80
2023,04,21,09,06,7.80
2023,04,21,09,07,7.80
2023,04,21,09,08,7.80
2023,04,21,09,09,7.80
2023,04,21,09,10,7.70
2023,04,21,09,11,7.70
2023,04,21,09,12,7.70
2023,04,21,09,13,7.70
2023,04,21,09,14,7.70
2023,04,21,09,15,7.70
2023,04,21,09,16,7.70
2023,04,21,09,17,7.70
2023,04,21,09,18,7.70
2023,04,21,09,19,7.80
2023,04,21,09,20,7.80
2023,04,21,09,21,7.80
2023,04,21,09,22,7.90
2023,04,21,09,23,7.90
2023,04,21,09,24,8.00
2023,04,21,09,25,8.00
2023,04,21,09,26,8.10
2023,04,21,09,27,8.20
2023,04,21,09,28,8.20
2023,04,21,09,29,8.30
2023,04,21,09,30,8.30
2023,04,21,09,31,8.40
2023,04,21,09,32,8.40
2023,04,21,09,33,8.50
2023,04,21,09,34,8.50
2023,04,21,09,35,8.50
2023,04,21,09,36,8.50
2023,04,21,09,37,8.60
2023,04,21,09,38,8.70
2023,04,21,09,39,8.80
2023,04,21,09,40,8.80
2023,04,21,09,41,8.90
2023,04,21,09,42,8.90
2023,04,21,09,43,9.00
2023,04,21,09,44,9.10
2023,04,21,09,45,9.10
2023,04,21,09,46,9.20
2023,04,21,09,47,9.20
2023,04,21,09,48,9.20
2023,04,21,09,49,9.20
2023,04,21,09,50,9.20
2023,04,21,09,51,9.20
2023,04,21,09,52,9.20
2023,04,21,09,53,9.30
2023,04,21,09,54,9.20
2023,04,21,09,55,9.20
2023,04,21,09,56,9.20
2023,04,21,09,57,9.20
2023,04,21,09,58,9.20
2023,04,21,09,59,9.20
2023,04,21,10,00,9.30
2023,04,21,10,01,9.30
2023,04,21,10,02,9.30
2023,04,21,10,03,9.30
2023,04,21,10,04,9.30
2023,04,21,10,05,9.30
2023,04,21,10,06,9.30
2023,04,21,10,07,9.30
2023,04,21,10,08,9.30
2023,04,21,10,09,9.30
2023,04,21,10,10,9.30
2023,04,21,10,11,9.30
2023,04,21,10,12,9.30
2023,04,21,10,13,9.40
2023,04,21,10,14,9.40
2023,04,21,10,15,9.40
2023,04,21,10,16,9.40
2023,04,21,10,17,9.40
2023,04,21,10,18,9.40
2023,04,21,10,19,9.40
2023,04,21,10,20,9.40
2023,04,21,10,21,9.40
2023,04,21,10,22,9.40
2023,04,21,10,23,9.40
2023,04,21,10,24,9.40
2023,04,21,10,25,9.40
2023,04,21,10,26,9.40
2023,04,21,10,27,9.40
2023,04,21,10,28,9.40
2023,04,21,10,29,9.40
2023,04,21,10,30,9.50
2023,04,21,10,31,9.50
2023,04,21,10,32,9.60
2023,04,21,10,33,9.60
2023,04,21,10,34,9.60
2023,04,21,10,35,9.60
2023,04,21,10,36,9.60
2023,04,21,10,37,9.60
2023,04,21,10,38,9.60
2023,04,21,10,39,9.60
2023,04,21,10,40,9.60
2023,04,21,10,41,9.60
2023,04,21,10,42,9.60
2023,04,21,10,43,9.60
2023,04,21,10,44,9.60
2023,04,21,10,45,9.60
2023,04,21,10,46,9.70
2023,04,21,10,47,9.70
2023,04,21,10,48,9.70
2023,04,21,10,49,9.70
2023,04,21,10,50,9.70
2023,04,21,10,51,9.70
2023,04,21,10,52,9.70
2023,04,21,10,53,9.70
2023,04,21,10,54,9.70
2023,04,21,10,55,9.60
2023,04,21,10,56,9.60
2023,04,21,10,57,9.50
2023,04,21,10,58,9.40
2023,04,21,10,59,9.40
2023,04,21,11,00,9.30
2023,04,21,11,01,9.30
2023,04,21,11,02,9.20
2023,04,21,11,03,9.10
2023,04,21,11,04,9.10
2023,04,21,11,05,9.00
2023,04,21,11,06,9.00
2023,04,21,11,07,9.00
2023,04,21,11,08,8.90
2023,04,21,11,09,8.90
2023,04,21,11,10,8.80
2023,04,21,11,11,8.80
2023,04,21,11,12,8.90
2023,04,21,11,13,8.90
2023,04,21,11,14,8.80
2023,04,21,11,15,8.80
2023,04,21,11,16,8.80
2023,04,21,11,17,8.80
2023,04,21,11,18,8.80
2023,04,21,11,19,8.80
2023,04,21,11,20,8.80
2023,04,21,11,21,8.80
2023,04,21,11,22,8.80
2023,04,21,11,23,8.90
2023,04,21,11,24,9.00
2023,04,21,11,25,9.10
2023,04,21,11,26,9.20
2023,04,21,11,27,9.20
2023,04,21,11,28,9.30
2023,04,21,11,29,9.30
2023,04,21,11,30,9.40
2023,04,21,11,31,9.40
2023,04,21,11,32,9.40
2023,04,21,11,33,9.40
2023,04,21,11,34,9.40
2023,04,21,11,35,9.40
2023,04,21,11,36,9.50
2023,04,21,11,37,9.60
2023,04,21,11,38,9.60
2023,04,21,11,39,9.70
2023,04,21,11,40,9.70
2023,04,21,11,41,9.70
2023,04,21,11,42,9.80
2023,04,21,11,43,9.80
2023,04,21,11,44,9.80
2023,04,21,11,45,9.90
2023,04,21,11,46,9.80
2023,04,21,11,47,9.90
2023,04,21,11,48,9.90
2023,04,21,11,49,9.90
2023,04,21,11,50,9.90
2023,04,21,11,51,9.90
2023,04,21,11,52,10.00
2023,04,21,11,53,10.10
2023,04,21,11,54,10.10
2023,04,21,11,55,10.20
2023,04,21,11,56,10.20
2023,04,21,11,57,10.30
2023,04,21,11,58,10.30
2023,04,21,11,59,10.20
2023,04,21,12,00,10.20
2023,04,21,12,01,10.10
2023,04,21,12,02,10.10
2023,04,21,12,03,10.10
2023,04,21,12,04,10.10
2023,04,21,12,05,10.20
2023,04,21,12,06,10.20
2023,04,21,12,07,10.20
2023,04,21,12,08,10.20
2023,04,21,12,09,10.30
2023,04,21,12,10,10.30
2023,04,21,12,11,10.30
2023,04,21,12,12,10.30
2023,04,21,12,13,10.30
2023,04,21,12,14,10.20
2023,04,21,12,15,10.20
2023,04,21,12,16,10.20
2023,04,21,12,17,10.20
2023,04,21,12,18,10.20
2023,04,21,12,19,10.20
2023,04,21,12,20,10.10
2023,04,21,12,21,10.10
2023,04,21,12,22,10.10
2023,04,21,12,23,10.00
2023,04,21,12,24,10.00
2023,04,21,12,25,9.90
2023,04,21,12,26,9.90
2023,04,21,12,27,9.90
2023,04,21,12,28,9.90
2023,04,21,12,29,9.80
2023,04,21,12,30,9.80
2023,04,21,12,31,9.80
2023,04,21,12,32,9.80
2023,04,21,12,33,9.90
2023,04,21,12,34,9.90
2023,04,21,12,35,10.00
2023,04,21,12,36,10.00
2023,04,21,12,37,10.10
2023,04,21,12,38,10.10
2023,04,21,12,39,10.10
2023,04,21,12,40,10.20
2023,04,21,12,41,10.30
2023,04,21,12,42,10.30
2023,04,21,12,43,10.40
2023,04,21,12,44,10.40
2023,04,21,12,45,10.40
2023,04,21,12,46,10.40
2023,04,21,12,47,10.40
2023,04,21,12,48,10.30
2023,04,21,12,49,10.30
2023,04,21,12,50,10.30
2023,04,21,12,51,10.40
2023,04,21,12,52,10.40
2023,04,21,12,53,10.50
2023,04,21,12,54,10.50
2023,04,21,12,55,10.40
2023,04,21,12,56,10.40
2023,04,21,12,57,10.40
2023,04,21,12,58,10.30
2023,04,21,12,59,10.30
2023,04,21,13,00,10.30
2023,04,21,13,01,10.30
2023,04,21,13,02,10.40
2023,04,21,13,03,10.40
2023,04,21,13,04,10.40
2023,04,21,13,05,10.40
2023,04,21,13,06,10.40
2023,04,21,13,07,10.50
2023,04,21,13,08,10.50
2023,04,21,13,09,10.60
2023,04,21,13,10,10.60
2023,04,21,13,11,10.60
2023,04,21,13,12,10.60
2023,04,21,13,13,10.60
2023,04,21,13,14,10.60
2023,04,21,13,15,10.60
2023,04,21,13,16,10.60
2023,04,21,13,17,10.60
2023,04,21,13,18,10.60
2023,04,21,13,19,10.60
2023,04,21,13,20,10.60
2023,04,21,13,21,10.60
2023,04,21,13,22,10.60
2023,04,21,13,23,10.60
2023,04,21,13,24,10.70
2023,04,21,13,25,10.60
2023,04,21,13,26,10.60
2023,04,21,13,27,10.60
2023,04,21,13,28,10.60
2023,04,21,13,29,10.60
2023,04,21,13,30,10.60
2023,04,21,13,31,10.60
2023,04,21,13,32,10.60
2023,04,21,13,33,10.60
2023,04,21,13,34,10.60
2023,04,21,13,35,10.60
2023,04,21,13,36,10.60
2023,04,21,13,37,10.60
2023,04,21,13,38,10.60
2023,04,21,13,39,10.60
2023,04,21,13,40,10.70
2023,04,21,13,41,10.70
2023,04,21,13,42,10.70
2023,04,21,13,43,10.70
2023,04,21,13,44,10.70
2023,04,21,13,45,10.70
2023,04,21,13,46,10.70
2023,04,21,13,47,10.80
2023,04,21,13,48,10.80
2023,04,21,13,49,10.80
2023,04,21,13,50,10.80
2023,04,21,13,51,10.90
2023,04,21,13,52,10.90
2023,04,21,13,53,11.00
2023,04,21,13,54,11.00
2023,04,21,13,55,11.10
2023,04,21,13,56,11.00
2023,04,21,13,57,11.00
2023,04,21,13,58,11.00
2023,04,21,13,59,11.00
2023,04,21,14,00,10.90
2023,04,21,14,01,10.90
2023,04,21,14,02,10.90
2023,04,21,14,03,10.90
2023,04,21,14,04,11.00
2023,04,21,14,05,11.00
2023,04,21,14,06,11.00
2023,04,21,14,07,11.00
2023,04,21,14,08,10.90
2023,04,21,14,09,10.90
2023,04,21,14,10,10.90
2023,04,21,14,11,10.90
2023,04,21,14,12,10.90
2023,04,21,14,13,10.90
2023,04,21,14,14,10.90
2023,04,21,14,15,10.90
2023,04,21,14,16,11.00
2023,04,21,14,17,11.00
2023,04,21,14,18,11.00
2023,04,21,14,19,11.00
2023,04,21,14,20,11.00
2023,04,21,14,21,11.00
2023,04,21,14,22,11.10
2023,04,21,14,23,11.00
2023,04,21,14,24,11.00
2023,04,21,14,25,11.00
2023,04,21,14,26,11.00
2023,04,21,14,27,10.90
2023,04,21,14,28,10.90
2023,04,21,14,29,11.00
2023,04,21,14,30,11.00
2023,04,21,14,31,11.00
2023,04,21,14,32,11.00
2023,04,21,14,33,11.10
2023,04,21,14,34,11.10
2023,04,21,14,35,11.10
2023,04,21,14,36,11.20
2023,04,21,14,37,11.20
2023,04,21,14,38,11.30
2023,04,21,14,39,11.30
2023,04,21,14,40,11.30
2023,04,21,14,41,11.30
2023,04,21,14,42,11.40
2023,04,21,14,43,11.40
2023,04,21,14,44,11.30
2023,04,21,14,45,11.40
2023,04,21,14,46,11.30
2023,04,21,14,47,11.30
2023,04,21,14,48,11.30
2023,04,21,14,49,11.30
2023,04,21,14,50,11.20
2023,04,21,14,51,11.20
2023,04,21,14,52,11.20
2023,04,21,14,53,11.20
2023,04,21,14,54,11.20
2023,04,21,14,55,11.20
2023,04,21,14,56,11.20
2023,04,21,14,57,11.20
2023,04,21,14,58,11.20
2023,04,21,14,59,11.20
2023,04,21,15,00,11.20
2023,04,21,15,01,11.20
2023,04,21,15,02,11.30
2023,04,21,15,03,11.30
2023,04,21,15,04,11.30
2023,04,21,15,05,11.30
2023,04,21,15,06,11.30
2023,04,21,15,07,11.30
2023,04,21,15,08,11.30
2023,04,21,15,09,11.30
2023,04,21,15,10,11.30
2023,04,21,15,11,11.30
2023,04,21,15,12,11.30
2023,04,21,15,13,11.40
2023,04,21,15,14,11.40
2023,04,21,15,15,11.40
2023,04,21,15,16,11.40
2023,04,21,15,17,11.40
2023,04,21,15,18,11.40
2023,04,21,15,19,11.40
2023,04,21,15,20,11.40
2023,04,21,15,21,11.40
2023,04,21,15,22,11.40
2023,04,21,15,23,11.40
2023,04,21,15,24,11.40
2023,04,21,15,25,11.40
2023,04,21,15,26,11.40
2023,04,21,15,27,11.40
2023,04,21,15,28,11.40
2023,04,21,15,29,11.50
2023,04,21,15,30,11.50
2023,04,21,15,31,11.60
2023,04,21,15,32,11.60
2023,04,21,15,33,11.60
2023,04,21,15,34,11.70
2023,04,21,15,35,11.70
2023,04,21,15,36,11.70
2023,04,21,15,37,11.70
2023,04,21,15,38,11.70
2023,04,21,15,39,11.70
2023,04,21,15,40,11.70
2023,04,21,15,41,11.70
2023,04,21,15,42,11.80
2023,04,21,15,43,11.80
2023,04,21,15,44,11.80
2023,04,21,15,45,11.80
2023,04,21,15,46,11.80
2023,04,21,15,47,11.80
2023,04,21,15,48,11.80
2023,04,21,15,49,11.80
2023,04,21,15,50,11.70
2023,04,21,15,51,11.70
2023,04,21,15,52,11.60
2023,04,21,15,53,11.60
2023,04,21,15,54,11.60
2023,04,21,15,55,11.60
2023,04,21,15,56,11.60
2023,04,21,15,57,11.60
2023,04,21,15,58,11.60
2023,04,21,15,59,11.60
2023,04,21,16,00,11.60
2023,04,21,16,01,11.60
2023,04,21,16,02,11.50
2023,04,21,16,03,11.50
2023,04,21,16,04,11.50
2023,04,21,16,05,11.50
2023,04,21,16,06,11.40
2023,04,21,16,07,11.40
2023,04,21,16,08,11.40
2023,04,21,16,09,11.40
2023,04,21,16,10,11.40
2023,04,21,16,11,11.40
2023,04,21,16,12,11.40
2023,04,21,16,13,11.40
2023,04,21,16,14,11.40
2023,04,21,16,15,11.40
2023,04,21,16,16,11.40
2023,04,21,16,17,11.40
2023,04,21,16,18,11.40
2023,04,21,16,19,11.40
2023,04,21,16,20,11.50
2023,04,21,16,21,11.50
2023,04,21,16,22,11.50
2023,04,21,16,23,11.50
2023,04,21,16,24,11.50
2023,04,21,16,25,11.50
2023,04,21,16,26,11.50
2023,04,21,16,27,11.50
2023,04,21,16,28,11.60
2023,04,21,16,29,11.60
2023,04,21,16,30,11.50
2023,04,21,16,31,11.50
2023,04,21,16,32,11.50
2023,04,21,16,33,11.40
2023,04,21,16,34,11.30
2023,04,21,16,35,11.30
2023,04,21,16,36,11.20
2023,04,21,16,37,11.20
2023,04,21,16,38,11.20
2023,04,21,16,39,11.20
2023,04,21,16,40,11.20
2023,04,21,16,41,11.20
2023,04,21,16,42,11.10
2023,04,21,16,43,11.10
2023,04,21,16,44,11.10
2023,04,21,16,45,11.10
2023,04,21,16,46,11.10
2023,04,21,16,47,11.10
2023,04,21,16,48,11.10
2023,04,21,16,49,11.10
2023,04,21,16,50,11.10
2023,04,21,16,51,11.10
2023,04,21,16,52,11.20
2023,04,21,16,53,11.20
2023,04,21,16,54,11.20
2023,04,21,16,55,11.20
2023,04,21,16,56,11.20
2023,04,21,16,57,11.20
2023,04,21,16,58,11.20
2023,04,21,16,59,11.20
2023,04,21,17,00,11.20
2023,04,21,17,01,11.10
2023,04,21,17,02,11.10
2023,04,21,17,03,11.10
2023,04,21,17,04,11.10
2023,04,21,17,05,11.10
2023,04,21,17,06,11.10
2023,04,21,17,07,11.10
2023,04,21,17,08,11.10
2023,04,21,17,09,11.10
2023,04,21,17,10,11.10
2023,04,21,17,11,11.10
2023,04,21,17,12,11.10
2023,04,21,17,13,11.10
2023,04,21,17,14,11.10
2023,04,21,17,15,11.10
2023,04,21,17,16,11.10
2023,04,21,17,17,11.10
2023,04,21,17,18,11.10
2023,04,21,17,19,11.20
2023,04,21,17,20,11.20
2023,04,21,17,21,11.20
2023,04,21,17,22,11.10
2023,04,21,17,23,11.20
2023,04,21,17,24,11.20
2023,04,21,17,25,11.20
2023,04,21,17,26,11.20
2023,04,21,17,27,11.20
2023,04,21,17,28,11.30
2023,04,21,17,29,11.30
2023,04,21,17,30,11.30
2023,04,21,17,31,11.30
2023,04,21,17,32,11.30
2023,04,21,17,33,11.30
2023,04,21,17,34,11.30
2023,04,21,17,35,11.30
2023,04,21,17,36,11.40
2023,04,21,17,37,11.40
2023,04,21,17,38,11.40
2023,04,21,17,39,11.30
2023,04,21,17,40,11.30
2023,04,21,17,41,11.30
2023,04,21,17,42,11.30
2023,04,21,17,43,11.40
2023,04,21,17,44,11.40
2023,04,21,17,45,11.30
2023,04,21,17,46,11.30
2023,04,21,17,47,11.30
2023,04,21,17,48,11.40
2023,04,21,17,49,11.40
2023,04,21,17,50,11.40